Simultaneous Nadir Overpasses (SNOs) Predictions

Prediction of SNOs between AQUA and METOP-C Satellite Orbit:

Table of predicted SNOs for the next 14.0 days since TLE Epoch: 4/3/2020
Index Date (AQUA) Time (AQUA) Lat,Lon (AQUA) SZA (AQUA ) Date (METOP-C) Time (METOP-C) Lat,Lon (METOP-C) SZA (METOP-C ) Distance(km) Time Diff (sec)
1 04/05/2020 23:08:28 73.74,-172.61 67.21 04/05/2020 23:07:37 73.75,-172.52 67.23 3.16 51
2 04/05/2020 23:57:54 -73.78, -5.05 112.76 04/05/2020 23:58:17 -73.80, -5.07 112.74 2.58 23
3 04/08/2020 18:42:43 73.73,-106.16 66.14 04/08/2020 18:42:01 73.72,-106.20 66.14 1.96 42
4 04/08/2020 19:32:10 -73.82, 61.28 113.78 04/08/2020 19:32:40 -73.82, 61.38 113.78 2.94 30
5 04/11/2020 14:16:58 73.73, -39.73 65.10 04/11/2020 14:16:24 73.73, -39.76 65.11 1.00 34
6 04/11/2020 15:06:25 -73.82, 127.72 114.82 04/11/2020 15:07:03 -73.84, 127.83 114.81 3.65 38
7 04/14/2020 09:51:12 73.74, 26.69 64.09 04/14/2020 09:50:46 73.74, 26.68 64.09 0.39 26
8 04/14/2020 10:40:39 -73.83,-165.86 115.83 04/14/2020 10:41:26 -73.80,-165.85 115.87 3.04 47
9 04/17/2020 04:35:49 -73.23, -73.42 117.45 04/17/2020 04:34:41 -73.14, -75.61 117.46 71.22 68
10 04/17/2020 05:25:27 73.76, 93.08 63.11 04/17/2020 05:25:09 73.75, 93.11 63.10 1.24 18
11 04/17/2020 06:14:53 -73.80, -99.35 116.87 04/17/2020 06:15:49 -73.82, -99.41 116.85 3.23 56




NCC Satellite Simultaneous Nadir Overpasses (SNOs) Prediction Service
